Regional Weather Roundup
Issued by NWS

Home | Current Version | Previous Version | Text Only | Print | Product List | Glossary Off
Versions: 1 2 3 4 5 6 7 8 9 10 11 12 13 14 15 16 17 18 19 20 21 22 23 24 25 26 27 28 29 30 31 32 33 34 35 36 37 38 39 40 41 42 43 44 45 46 47 48 49 50

000
ASUS43 KDMX 291103
RWRIA

WEATHER ROUNDUP FOR IOWA
NATIONAL WEATHER SERVICE DES MOINES IA
600 AM CDT MON AUG 29 2016

NOTE: "FAIR" INDICATES FEW OR NO CLOUDS BELOW 12,000 FEET WITH NO
SIGNIFICANT WEATHER AND/OR OBSTRUCTIONS TO VISIBILITY.

* - THESE STATIONS ARE NOT NWS STATIONS...THUS NOT UNDER NWS
QUALITY CONTROL.  THEY ALSO DO NOT REPORT WEATHER SUCH
AS PRECIPITATION OR FOG.

IAZ001>003-012>014-020>022-031>034-043>046-291200-
   NORTHWEST IOWA

CITY           SKY/WX    TMP DP  RH WIND       PRES   REMARKS
CARROLL *      CLOUDY    66  66 100 CALM      30.15S
CHEROKEE *     CLOUDY    64  64 100 CALM      30.15S
DENISON *      CLOUDY    66  64  94 CALM      30.13S
LE MARS *      PTCLDY    66  64  94 CALM      30.14S
ORANGE CITY *  PTCLDY    66  64  94 SE3       30.14F
SHELDON *      PTCLDY    64  64 100 SE5       30.13F
SIOUX CITY     CLOUDY    67  64  90 E7        30.12F
SPENCER        PTCLDY    63  61  93 CALM      30.15F
STORM LAKE *   CLOUDY    66  64  94 S6        30.15F
$$

IAZ055>058-069>071-079>083-090>094-291200-
   SOUTHWEST IOWA

CITY           SKY/WX    TMP DP  RH WIND       PRES   REMARKS
ATLANTIC *     PTCLDY    66  64  94 N6        30.16R
AUDUBON *      PTCLDY    64  63  94 CALM      30.17S FOG
CLARINDA *       N/A     68  68 100 MISG      30.17S
COUNCIL BLFS * PTCLDY    68  68 100 SE8       30.15S
CRESTON *      CLOUDY    68  68 100 SE3       30.17F FOG
HARLAN  *      CLOUDY    64  64 100 CALM      30.18S FOG
LAMONI         CLOUDY    69  68  96 S3        30.16S
RED OAK *      CLOUDY    68  68 100 CALM      30.15S
SHENANDOAH *   CLOUDY    68 -40   1 CALM      30.15S
$$

IAZ047>049-059>061-072>074-084-291200-
   CENTRAL IOWA

CITY           SKY/WX    TMP DP  RH WIND       PRES   REMARKS
AMES           CLOUDY    69  69 100 SE3       30.17R
ANKENY *         N/A    N/A N/A N/A MISG        N/A
BOONE *          N/A     70  68  94 SE5       30.16R FOG
CHARITON *       N/A     72  70  94 MISG      30.17S
DES MOINES     CLOUDY    73  71  93 E8        30.16R
GRINNELL*      CLOUDY    68  66  94 E6        30.19S
KNOXVILLE *    CLOUDY    70  68  94 E6        30.16S FOG
MARSHALLTOWN   CLOUDY    69  69 100 SE7       30.18R
NEWTON *       CLOUDY    70  70 100 E7        30.18R
PERRY *        MOCLDY    69  68  99 E3        30.16R
$$

IAZ004>006-015-016-023>025-035-036-291200-
   NORTH CENTRAL IOWA

CITY           SKY/WX    TMP DP  RH WIND       PRES   REMARKS
ALGONA *       PTCLDY    64  64 100 S3        30.17S
ESTHERVILLE    CLOUDY    62  62 100 S5        30.15F
FORT DODGE *   MOCLDY    64  63  94 E5        30.17R
MASON CITY     FOG       64  64 100 E3        30.20R VSB 1/2
FOREST CITY *    N/A    N/A N/A N/A MISG        N/A
WEBSTER CITY * CLOUDY    64  64 100 E5        30.15R FOG
IOWA FALLS *     N/A     67  66  96 E3        30.20R FOG
$$

IAZ007>011-017>019-026>030-037>042-050>054-066-291200-
   NORTHEAST IOWA

CITY           SKY/WX    TMP DP  RH WIND       PRES   REMARKS
CEDAR RAPIDS   CLOUDY    68  68 100 CALM      30.19R
CHARLES CITY * CLEAR     66  66 100 SE6       30.21R
CLINTON *      CLEAR     68  67  96 NE5         N/A  FOG
DECORAH *      PTCLDY    64  64 100 SE5       30.21R
DUBUQUE        FOG       66  65  96 N5        30.22S VSB 1/4
MONTICELLO *   PTCLDY    66  66 100 CALM      30.20S FOG
OELWEIN *      CLOUDY    66  66 100 SE6       30.21S
WATERLOO       MOCLDY    67  65  93 E5        30.18S
$$

IAZ064-065-067-068-078-291200-
   EAST CENTRAL IOWA

CITY           SKY/WX    TMP DP  RH WIND       PRES   REMARKS
DAVENPORT      CLEAR     68  67  96 E6        30.20R FOG
IOWA CITY      CLOUDY    70  68  93 CALM      30.20R
MT. PLEASANT * CLEAR     69  69 100 CALM      30.18R FOG
QUAD CITIES    CLOUDY    70  68  93 E8        30.18S FOG
$$

IAZ062-063-075>077-085>089-095>099-291200-
   SOUTHEAST IOWA

CITY           SKY/WX    TMP DP  RH WIND       PRES   REMARKS
BURLINGTON     PTCLDY    71  70  96 NE3       30.17R
FAIRFIELD *    MOCLDY    70  68  94 E3        30.18R
FORT MADISON * PTCLDY    68  68 100 CALM      30.18S FOG
KEOKUK *       CLEAR     70  70 100 E3        30.16S FOG
OSKALOOSA *      N/A     68  68  98 CALM      30.18S FOG
CENTERVILLE *    N/A     70  68  94 CALM      30.19R
OTTUMWA        CLOUDY    69  67  93 E5        30.18R
WASHINGTON *   MOCLDY    68  68 100 NE5       30.19R
$$

ABBREVIATIONS USED IN REMARKS
   TC - TEMPERATURES IN CELSIUS
  WCI - WIND CHILL INDEX
   HX - HEAT INDEX
  VSB - VISIBILITY
$$





USA.gov is the U.S. government's official web portal to all federal, state and local government web resources and services.